User: anonymous   Login
Location: Caltech
(34.1382°N, 118.1253°W)
Time: 13:37:41
(UTC-07:00)
Language:

Uribyol 2 - Orbit

View from above orbital plane
View from above orbital plane
View from above satellite
View from above satellite

Ground track
Ground track

The orbit data is extracted from the following two-line orbital elements,

1 22828U 93061F   16240.96597940  .00000002  00000-0  17955-4 0  9996
2 22828  98.7512 196.7189 0011006  70.1106 290.1261 14.30601205164015
Epoch (UTC): 27 August 2016 23:11:00
Eccentricity: 0.0011006
inclination: 98.7512°
perigee height: 782 km
apogee height: 797 km
right ascension of ascending node: 196.7189°
argument of perigee: 70.1106°
revolutions per day: 14.30601205
mean anomaly at epoch: 290.1261°
orbit number at epoch: 16401

The dashed part of the orbit path shows where the satellite is in the earth's shadow,  

DLR